Flag for Argentina Weather past 2 weeks in Buenos Aires, Argentina

Now
66 °F

Scattered clouds.


Feels Like: 66 °F
Forecast: 62 / 75 °F
Wind: 6 mph from North

Location: Buenos Aires Airport

Current Time: Jan 30, 2015 at 7:21:39 AM

Latest Report: Jan 30, 2015 at 7:00 AM


Visibility: N/A

Pressure: 30.15 "Hg

Humidity: 68%

Dew point: 55 °F

Location of Buenos AiresLocation

Historic Weather in Buenos Aires — Graph

°F

Buenos Aires temperature yesterday

Maximum temperature yesterday: 73 °F (at 1:00 PM)
Minimum temperature yesterday: 61 °F (at 4:00 AM)
Average temperature yesterday: 68 °F

Past Weeks' High & Low Weather Summary

 TemperatureHumidityPressure
High91 °F (Jan 27, 2:00 PM)100% (Jan 27, 4:00 AM)30.21 "Hg (Jan 27, 4:00 AM)
Low61 °F (Jan 20, 6:00 AM)40% (Jan 25, 12:00 PM)29.65 "Hg (Jan 27, 5:00 PM)
Average75 °F71%29.95 "Hg
* Reported Jan 15 6:00 AM — Jan 30 6:00 AM, Buenos Aires, Weather by CustomWeather, © 2014

Note: Actual official high and low records may vary slightly from our data, if they occured in-between our weather recording intervals... More about our weather records

Advertising

Buenos Aires weather history for previous 24 hours

 ConditionsComfort  
Time TempWeatherWind HumidityBarometerVisibility
6:00 AM
Jan 30
64 °FScattered clouds.8 mph68%30.12 "HgN/A
5:00 AM66 °FPassing clouds.8 mph64%30.12 "HgN/A
4:00 AM66 °FPassing clouds.7 mph68%30.12 "HgN/A
3:00 AM66 °FPassing clouds.12 mph68%30.12 "HgN/A
2:00 AM68 °FPassing clouds.12 mph64%30.12 "HgN/A
1:00 AM68 °FPassing clouds.14 mph60%30.12 "HgN/A
12:00 AM68 °FPassing clouds.12 mph64%30.12 "HgN/A
11:00 PM
Jan 29
68 °FPassing clouds.14 mph64%30.12 "HgN/A
10:00 PM68 °FPassing clouds.15 mph64%30.12 "HgN/A
9:00 PM70 °FPassing clouds.16 mph60%30.09 "HgN/A
8:00 PM70 °FPassing clouds.15 mph60%30.09 "HgN/A
7:00 PM72 °FPassing clouds.14 mph53%30.07 "HgN/A
6:00 PM72 °FPassing clouds.12 mph53%30.09 "HgN/A
5:00 PM73 °FPassing clouds.12 mph47%30.09 "HgN/A
4:00 PM73 °FPassing clouds.12 mph44%30.09 "HgN/A
3:00 PM73 °FPassing clouds.13 mph41%30.09 "HgN/A
2:00 PM73 °FPassing clouds.13 mph44%30.09 "HgN/A
1:00 PM73 °FSunny.10 mph44%30.09 "Hg10 mi
12:00 PM72 °FSunny.14 mph50%30.09 "Hg10 mi
11:00 AM70 °FSunny.15 mph53%30.12 "Hg10 mi
10:00 AM66 °FSunny.16 mph60%30.09 "Hg10 mi
9:00 AM64 °FSunny.23 mph64%30.09 "Hg10 mi
8:00 AM63 °FSunny.18 mph64%30.04 "Hg10 mi
7:00 AM63 °FSunny.16 mph68%30.04 "Hg10 mi
Weather by CustomWeather, © 2014

See weather overviewHow to use our weather pages